DK8DX-13 Weather Reports


time (UTC)temp
C
wind
direction
speed
KPH
gust
KPH
rain 1hr
cm
rain 24hr
cm
rain mn
cm
humidity
%
barometer
mb
20260506121336 8 341 0.0 9.7 0.08 0.00 0.00 93 1008.3
20260506120911 8 22 0.0 6.4 0.05 0.00 0.00 93 1008.1
20260506120441 8 343 0.0 11.3 0.08 0.00 0.00 93 1008.2
20260506120021 8 354 0.0 6.4 0.05 0.00 0.00 93 1008.3
20260506115546 8 354 0.0 6.4 0.05 0.00 0.00 93 1008.3
20260506115106 8 32 0.0 6.4 0.05 0.00 0.00 93 1008.3
20260506114703 8 32 0.0 6.4 0.05 0.00 0.00 93 1008.3
20260506114221 8 350 0.0 11.3 0.03 0.00 0.00 93 1008.3
20260506113741 8 5 0.0 14.5 0.03 0.00 0.00 93 1008.1
20260506113306 8 63 0.0 11.3 0.00 0.00 0.00 94 1008.2
20260506112846 8 360 0.0 11.3 0.05 0.00 0.00 94 1008.1
20260506112413 8 27 0.0 11.3 0.05 0.00 0.00 94 1008.2
20260506111951 8 349 0.0 12.9 0.03 0.00 0.00 94 1008.0
20260506111526 8 11 0.0 12.9 0.03 0.00 0.00 94 1008.2
20260506111036 8 358 0.0 14.5 0.05 0.00 0.00 94 1008.2
20260506110606 8 358 0.0 14.5 0.05 0.00 0.00 94 1008.2
20260506110136 8 35 0.0 6.4 0.05 0.00 0.00 94 1008.2
20260506105646 8 340 0.0 9.7 0.08 0.00 0.00 94 1008.2
20260506105241 8 21 0.0 14.5 0.08 0.00 0.00 94 1008.3
20260506104811 7 345 0.0 6.4 0.10 0.00 0.00 94 1008.2
20260506104351 7 3 0.0 9.7 0.10 0.00 0.00 94 1008.2
20260506103906 7 359 0.0 6.4 0.10 0.00 0.00 94 1008.1
20260506103416 7 8 0.0 11.3 0.10 0.00 0.00 94 1008.2
20260506102941 8 348 0.0 25.7 0.10 0.00 0.00 94 1008.1
20260506102516 8 336 0.0 12.9 0.10 0.00 0.00 94 1007.9
20260506102101 8 336 0.0 12.9 0.10 0.00 0.00 94 1007.9
20260506101641 8 359 0.0 12.9 0.10 0.00 0.00 94 1007.8
20260506101211 7 354 0.0 11.3 0.13 0.00 0.00 94 1007.8
20260506100716 7 14 0.0 11.3 0.15 0.00 0.00 94 1007.8
20260506100236 7 38 0.0 4.8 0.18 0.00 0.00 94 1007.9
20260506095751 7 359 0.0 6.4 0.20 0.00 0.00 94 1007.7
20260506095331 7 1 0.0 11.3 0.18 0.00 0.00 94 1007.9
20260506094856 7 348 0.0 9.7 0.10 0.00 0.00 94 1007.8
20260506094433 7 334 0.0 9.7 0.08 0.00 0.00 94 1007.9
20260506094006 7 19 0.0 11.3 0.05 0.00 0.00 94 1007.8
20260506093521 7 357 0.0 11.3 0.05 0.00 0.00 94 1007.8
20260506093033 7 357 0.0 11.3 0.05 0.00 0.00 94 1007.8
20260506092616 7 218 0.0 3.2 0.03 0.00 0.00 94 1007.7
20260506092151 7 315 0.0 4.8 0.00 0.00 0.00 94 1007.7
20260506091736 7 284 0.0 4.8 0.00 0.00 0.00 94 1007.7
20260506091326 7 256 0.0 4.8 0.00 0.00 0.00 94 1007.6
20260506090846 7 279 0.0 11.3 0.00 0.00 0.00 94 1007.4
20260506090426 6 327 0.0 16.1 0.03 0.00 0.00 94 1007.4
20260506085951 6 322 0.0 16.1 0.05 0.00 0.00 94 1007.3
20260506085510 6 9 0.0 12.9 0.05 0.00 0.00 94 1007.2
20260506085041 6 360 0.0 11.3 0.03 0.00 0.00 94 1007.3
20260506084621 6 360 0.0 11.3 0.03 0.00 0.00 94 1007.3
20260506084151 6 251 0.0 9.7 0.00 0.00 0.00 94 1007.3
20260506083721 6 332 0.0 12.9 0.00 0.00 0.00 94 1007.2
20260506083251 7 351 0.0 12.9 0.00 0.00 0.00 94 1007.2
20260506082826 7 348 0.0 6.4 0.00 0.00 0.00 94 1007.2
20260506082416 7 56 0.0 11.3 0.00 0.00 0.00 94 1007.1
20260506081951 7 329 0.0 12.9 0.00 0.00 0.00 94 1007.1
20260506081513 7 337 0.0 14.5 0.00 0.00 0.00 94 1007.0
20260506081031 7 337 0.0 14.5 0.00 0.00 0.00 94 1007.0
20260506080600 7 2 0.0 11.3 0.00 0.00 0.00 94 1007.0
20260506080136 7 2 0.0 11.3 0.00 0.00 0.00 94 1007.0
20260506073426 7 4 0.0 12.9 0.00 0.00 0.00 94 1007.0
20260506073000 7 358 0.0 14.5 0.00 0.00 0.00 94 1007.0
20260506072501 7 353 0.0 14.5 0.00 0.00 0.00 94 1007.0
20260506072021 7 353 0.0 14.5 0.00 0.00 0.00 94 1007.0
20260506071601 8 254 0.0 16.1 0.05 0.00 0.00 94 1007.0
20260506071121 8 254 0.0 16.1 0.05 0.00 0.00 94 1007.0
20260506070631 8 227 0.0 9.7 0.03 0.00 0.00 94 1006.8
20260506070203 8 137 0.0 11.3 0.00 0.00 0.00 94 1006.9
20260506062116 8 360 0.0 14.5 0.08 0.00 0.00 94 1006.3
20260506061651 8 47 0.0 12.9 0.08 0.00 0.00 94 1006.4
20260506061236 8 16 0.0 12.9 0.10 0.00 0.00 94 1006.4
20260506060806 8 39 0.0 12.9 0.13 0.00 0.00 94 1006.3
20260506060336 8 324 0.0 14.5 0.18 0.00 0.00 94 1006.2
20260506051326 8 15 0.0 14.5 0.10 0.00 0.00 94 1006.3
20260506050856 8 21 0.0 20.9 0.08 0.00 0.00 94 1006.2
20260506050436 8 357 0.0 6.4 0.05 0.00 0.00 94 1006.2
20260506045116 8 22 0.0 11.3 0.05 0.00 0.00 94 1006.3
20260506044656 8 64 0.0 16.1 0.08 0.00 0.00 94 1006.2
20260506044221 8 23 0.0 16.1 0.05 0.00 0.00 94 1006.2
20260506043736 8 66 0.0 14.5 0.08 0.00 0.00 94 1006.2
20260506043305 8 7 0.0 9.7 0.08 0.00 0.00 94 1006.2
20260506042831 8 60 0.0 12.9 0.08 0.00 0.00 94 1006.2
20260506042401 8 342 0.0 11.3 0.10 0.00 0.00 94 1006.1
20260506041926 8 63 0.0 11.3 0.10 0.00 0.00 94 1006.2
20260506041511 8 15 0.0 14.5 0.10 0.00 0.00 94 1006.2
20260506041016 8 12 0.0 14.5 0.10 0.00 0.00 94 1006.1
20260506040541 8 25 0.0 20.9 0.10 0.00 0.00 94 1006.2
20260506040106 8 25 0.0 20.9 0.10 0.00 0.00 94 1006.2
20260506035631 8 29 0.0 14.5 0.10 0.00 0.00 94 1006.2
20260506035156 8 15 0.0 12.9 0.10 0.00 0.00 94 1006.3
20260506034724 8 356 0.0 20.9 0.10 0.00 0.00 94 1006.2
20260506034256 8 23 0.0 14.5 0.10 0.00 0.00 94 1006.3
20260506033841 8 22 0.0 14.5 0.13 0.00 0.00 94 1006.3
20260506033411 8 41 0.0 14.5 0.13 0.00 0.00 94 1006.3
20260506032946 8 39 0.0 20.9 0.15 0.00 0.00 94 1006.3
20260506032526 8 360 0.0 17.7 0.15 0.00 0.00 94 1006.3
20260506032036 8 360 0.0 17.7 0.15 0.00 0.00 94 1006.3
20260506031606 8 3 0.0 20.9 0.20 0.00 0.00 94 1006.3
20260506031121 8 6 0.0 16.1 0.23 0.00 0.00 94 1006.3
20260506030716 8 13 0.0 14.5 0.25 0.00 0.00 94 1006.5
20260506030253 8 1 0.0 17.7 0.20 0.00 0.00 94 1006.5
20260506025806 8 15 0.0 22.5 0.18 0.00 0.00 94 1006.5
20260506025328 8 52 0.0 24.1 0.18 0.00 0.00 94 1006.6
20260506024912 8 356 0.0 17.7 0.20 0.00 0.00 94 1006.7
20260506024456 9 2 0.0 17.7 0.25 0.00 0.00 94 1006.6
20260506024021 9 19 0.0 22.5 0.28 0.00 0.00 94 1006.7
20260506023602 9 19 0.0 22.5 0.28 0.00 0.00 94 1006.7
20260506023151 9 349 0.0 22.5 0.28 0.00 0.00 94 1006.7
20260506022726 9 8 0.0 17.7 0.28 0.00 0.00 93 1006.7
20260506022256 9 29 0.0 16.1 0.25 0.00 0.00 93 1006.7
20260506021811 9 24 0.0 17.7 0.25 0.00 0.00 93 1006.8
20260506021316 9 356 0.0 14.5 0.20 0.00 0.00 93 1006.9
20260506020911 9 16 0.0 12.9 0.18 0.00 0.00 93 1006.9
20260506020416 9 356 0.0 11.3 0.18 0.00 0.00 93 1007.0
20260506015940 9 18 0.0 17.7 0.18 0.00 0.00 93 1007.0
20260506015526 9 15 0.0 20.9 0.20 0.00 0.00 93 1007.0
20260506015056 9 15 0.0 20.9 0.20 0.00 0.00 93 1007.0
20260506014626 9 359 0.0 20.9 0.20 0.00 0.00 93 1007.0
20260506014201 9 35 0.0 22.5 0.20 0.00 0.00 93 1007.1
20260506013733 9 45 0.0 22.5 0.20 0.00 0.00 93 1007.2
20260506013311 9 35 0.0 16.1 0.20 0.00 0.00 93 1007.1
20260506012821 9 25 0.0 16.1 0.20 0.00 0.00 93 1007.1
20260506012356 9 355 0.0 12.9 0.18 0.00 0.00 93 1007.2
20260506011922 9 3 0.0 12.9 0.20 0.00 0.00 93 1007.1
20260506011501 9 343 0.0 14.5 0.20 0.00 0.00 93 1007.2
20260506011041 10 359 0.0 14.5 0.20 0.00 0.00 93 1007.2
20260506010543 10 358 0.0 22.5 0.18 0.00 0.00 93 1007.2
20260506010106 10 358 0.0 22.5 0.18 0.00 0.00 93 1007.2
20260506005656 10 4 0.0 20.9 0.15 0.00 0.00 93 1007.3
20260506005211 10 13 0.0 12.9 0.15 0.00 0.00 93 1007.4
20260506004746 10 2 0.0 14.5 0.15 0.00 0.00 93 1007.4
20260506004256 10 4 0.0 17.7 0.18 0.00 0.00 93 1007.3
20260506003836 10 31 0.0 17.7 0.20 0.00 0.00 93 1007.4
20260506003406 10 25 0.0 9.7 0.20 0.00 0.00 93 1007.4
20260506002953 10 2 0.0 14.5 0.25 0.00 0.00 93 1007.5
20260506002516 10 11 0.0 16.1 0.30 0.00 0.00 93 1007.6
20260506002053 10 72 0.0 12.9 0.30 0.00 0.00 93 1007.7
20260506001156 10 38 0.0 12.9 0.28 0.00 0.00 93 1007.7
20260506000716 10 7 0.0 11.3 0.25 0.00 0.00 92 1007.9
20260506000241 10 37 0.0 6.4 0.23 0.00 0.00 92 1007.9
20260505235759 10 21 0.0 11.3 0.25 0.00 0.00 92 1008.0
20260505235331 10 85 0.0 9.7 0.25 0.00 0.00 92 1008.1
20260505234921 10 29 0.0 11.3 0.28 0.00 0.00 92 1008.1
20260505234456 10 26 0.0 9.7 0.28 0.00 0.00 92 1008.1
20260505234021 10 341 0.0 12.9 0.28 0.00 0.00 92 1008.1
20260505233551 10 38 0.0 17.7 0.25 0.00 0.00 92 1008.1
20260505233116 10 38 0.0 17.7 0.25 0.00 0.00 92 1008.1
20260505232656 10 36 0.0 20.9 0.20 0.00 0.00 92 1008.1
20260505232226 10 8 0.0 22.5 0.20 0.00 0.00 92 1008.2
20260505231746 10 340 0.0 22.5 0.20 0.00 0.00 92 1008.2
20260505231316 10 12 0.0 11.3 0.20 0.00 0.00 92 1008.2
20260505230901 10 43 0.0 17.7 0.20 0.00 0.00 92 1008.2
20260505230431 10 45 0.0 11.3 0.20 0.00 0.00 92 1008.2
20260505225946 10 60 0.0 14.5 0.23 0.00 0.00 92 1008.2
20260505225511 10 5 0.0 14.5 0.23 0.00 0.00 92 1008.3
20260505225036 10 5 0.0 14.5 0.23 0.00 0.00 92 1008.3
20260505224556 10 25 0.0 22.5 0.20 0.00 0.00 92 1008.3
20260505224136 10 25 0.0 22.5 0.20 0.00 0.00 92 1008.3
20260505223706 10 36 0.0 12.9 0.20 0.00 0.00 92 1008.3
20260505223246 10 22 0.0 14.5 0.18 0.00 0.00 92 1008.3
20260505222751 10 10 0.0 17.7 0.20 0.00 0.00 92 1008.4
20260505222326 10 44 0.0 20.9 0.18 0.00 0.00 91 1008.5
20260505221911 10 358 0.0 20.9 0.18 0.00 0.00 91 1008.4
20260505221441 10 8 0.0 14.5 0.15 0.00 0.00 91 1008.5
20260505221006 11 11 0.0 12.9 0.13 0.00 0.00 91 1008.4
20260505220536 11 71 0.0 4.8 0.13 0.00 0.00 91 1008.5
20260505220106 11 71 0.0 4.8 0.13 0.00 0.00 91 1008.5
20260505215636 11 26 0.0 9.7 0.10 0.00 0.00 91 1008.6
20260505215156 11 9 0.0 11.3 0.08 0.00 0.00 91 1008.6
20260505214716 11 352 0.0 14.5 0.05 0.00 0.00 91 1008.6
20260505214301 11 40 0.0 11.3 0.05 0.00 0.00 91 1008.8
20260505213821 11 360 0.0 9.7 0.03 0.00 0.00 91 1008.8
20260505213341 11 24 0.0 9.7 0.03 0.00 0.00 91 1008.8
20260505212906 11 360 0.0 11.3 0.00 0.00 0.00 91 1008.8
20260505212441 11 30 0.0 11.3 0.00 0.00 0.00 91 1008.9
20260505212036 11 0.0 3.2 0.00 0.00 0.00 91 1008.8
20260505211621 11 0.0 3.2 0.00 0.00 0.00 91 1008.8
20260505211141 11 53 0.0 9.7 0.00 0.00 0.00 91 1008.7
20260505210711 11 352 0.0 9.7 0.00 0.00 0.00 91 1008.9
20260505210236 11 337 0.0 9.7 0.00 0.00 0.00 91 1008.9
20260505205741 11 103 0.0 9.7 0.00 0.00 0.00 91 1009.0
20260505205301 11 340 0.0 11.3 0.00 0.00 0.00 90 1008.9
20260505204801 11 11 0.0 9.7 0.00 0.00 0.00 90 1008.9
20260505204346 11 346 0.0 9.7 0.00 0.00 0.00 90 1008.9
20260505203901 11 39 0.0 4.8 0.00 0.00 0.00 90 1009.0
20260505203446 11 348 0.0 9.7 0.00 0.00 0.00 90 1009.0
20260505203021 11 351 0.0 9.7 0.00 0.00 0.00 90 1008.9
20260505202536 11 351 0.0 9.7 0.00 0.00 0.00 90 1008.9
20260505202046 11 53 0.0 9.7 0.00 0.00 0.00 90 1009.0
20260505201609 11 53 0.0 9.7 0.00 0.00 0.00 90 1009.0
20260505201151 11 73 0.0 4.8 0.00 0.00 0.00 90 1009.0
20260505200731 11 27 0.0 4.8 0.00 0.00 0.00 90 1009.1
20260505200246 11 10 0.0 6.4 0.00 0.00 0.00 90 1009.1
20260505195801 11 19 0.0 4.8 0.00 0.00 0.00 90 1009.0
20260505195326 11 14 0.0 9.7 0.00 0.00 0.00 90 1009.0
20260505194846 11 59 0.0 3.2 0.00 0.00 0.00 90 1009.0
20260505194411 11 338 0.0 12.9 0.00 0.00 0.00 90 1009.0
20260505193942 11 22 0.0 9.7 0.00 0.00 0.00 90 1009.1
20260505193501 11 87 0.0 6.4 0.00 0.00 0.00 90 1009.1
20260505193026 11 48 0.0 11.3 0.00 0.00 0.00 90 1009.1
20260505192551 11 48 0.0 11.3 0.00 0.00 0.00 90 1009.1
20260505192116 11 88 0.0 11.3 0.00 0.00 0.00 90 1009.1
20260505191647 11 83 0.0 3.2 0.00 0.00 0.00 90 1009.1
20260505191226 11 21 0.0 4.8 0.00 0.00 0.00 90 1009.0
20260505190807 11 106 0.0 1.6 0.00 0.00 0.00 89 1008.9
20260505190331 11 0.0 0.0 0.00 0.00 0.00 90 1008.9
20260505185906 11 0.0 0.0 0.00 0.00 0.00 90 1008.9
20260505185501 11 49 0.0 6.4 0.00 0.00 0.00 89 1008.9
20260505185026 11 49 0.0 6.4 0.00 0.00 0.00 89 1008.9
20260505184601 11 49 0.0 9.7 0.00 0.00 0.00 89 1008.9
20260505184136 11 49 0.0 9.7 0.00 0.00 0.00 89 1008.9
20260505183711 11 96 0.0 11.3 0.00 0.00 0.00 89 1009.0
20260505183241 11 59 0.0 12.9 0.00 0.00 0.00 89 1008.9
20260505182801 11 352 0.0 11.3 0.00 0.00 0.00 89 1008.9
20260505182341 11 356 0.0 14.5 0.00 0.00 0.00 89 1009.0
20260505181906 11 5 0.0 11.3 0.00 0.00 0.00 89 1008.9
20260505181436 11 14 0.0 12.9 0.00 0.00 0.00 89 1008.9
20260505181021 11 350 0.0 17.7 0.00 0.00 0.00 88 1008.9
20260505180601 11 350 0.0 17.7 0.00 0.00 0.00 88 1008.9
20260505180146 11 55 0.0 16.1 0.00 0.00 0.00 88 1008.7
20260505175716 11 27 0.0 17.7 0.00 0.00 0.00 88 1008.8
20260505175231 11 4 0.0 16.1 0.00 0.00 0.00 88 1008.9
20260505174806 11 24 0.0 16.1 0.00 0.00 0.00 88 1008.9
20260505174341 12 19 0.0 17.7 0.00 0.00 0.00 87 1008.8
20260505173916 12 13 0.0 16.1 0.00 0.00 0.00 87 1009.0
20260505173446 12 16 0.0 16.1 0.00 0.00 0.00 87 1008.9
20260505173006 12 352 0.0 16.1 0.00 0.00 0.00 87 1008.9
20260505172536 12 54 0.0 12.9 0.00 0.00 0.00 87 1009.0
20260505172106 12 54 0.0 12.9 0.00 0.00 0.00 87 1009.0
20260505171646 12 44 0.0 16.1 0.00 0.00 0.00 87 1009.1
20260505171226 12 46 0.0 12.9 0.00 0.00 0.00 87 1009.0
20260505170801 12 16 0.0 12.9 0.00 0.00 0.00 86 1008.9
20260505170341 12 357 0.0 16.1 0.00 0.00 0.00 86 1009.0
20260505165907 12 40 0.0 16.1 0.00 0.00 0.00 86 1009.0
20260505165443 12 28 0.0 16.1 0.00 0.00 0.00 86 1009.0
20260505165016 12 3 0.0 11.3 0.00 0.00 0.00 86 1008.9
20260505164544 12 3 0.0 11.3 0.00 0.00 0.00 86 1008.9
20260505164131 12 11 0.0 16.1 0.00 0.00 0.00 86 1009.0
20260505163716 12 358 0.0 24.1 0.00 0.00 0.00 86 1009.0
20260505163221 12 342 0.0 12.9 0.00 0.00 0.00 86 1009.1
20260505162756 12 26 0.0 9.7 0.00 0.00 0.00 86 1009.1
20260505162326 12 14 0.0 24.1 0.00 0.00 0.00 86 1009.0
20260505161904 12 28 0.0 16.1 0.00 0.00 0.00 85 1009.0
20260505161431 12 15 0.0 25.7 0.00 0.00 0.00 85 1009.0
20260505160951 12 27 0.0 14.5 0.00 0.00 0.00 85 1009.1
20260505160501 12 43 0.0 14.5 0.00 0.00 0.00 85 1009.2
20260505153331 13 354 0.0 16.1 0.00 0.00 0.00 83 1009.6
20260505152911 13 355 0.0 12.9 0.00 0.00 0.00 83 1009.6
20260505152426 13 302 0.0 14.5 0.00 0.00 0.00 82 1009.6
20260505151941 13 353 0.0 20.9 0.00 0.00 0.00 82 1009.5
20260505151531 13 346 0.0 17.7 0.00 0.00 0.00 82 1009.5
20260505151101 13 346 0.0 17.7 0.00 0.00 0.00 82 1009.5
20260505150606 13 26 0.0 16.1 0.00 0.00 0.00 82 1009.5
20260505150121 13 1 0.0 16.1 0.00 0.00 0.00 82 1009.5
20260505140646 14 360 0.0 14.5 0.00 0.00 0.00 79 1009.9
20260505140216 14 39 0.0 16.1 0.00 0.00 0.00 78 1010.0
20260505125016 16 328 0.0 14.5 0.00 0.00 0.00 73 1010.1
20260505124546 16 328 0.0 14.5 0.00 0.00 0.00 73 1010.1
20260505124121 17 338 0.0 14.5 0.00 0.00 0.00 73 1010.2
20260505123646 17 21 0.0 22.5 0.00 0.00 0.00 72 1010.1
20260505123156 17 13 0.0 16.1 0.00 0.00 0.00 72 1010.1
20260505122721 17 49 0.0 12.9 0.00 0.00 0.00 73 1010.2
20260505122306 17 329 0.0 17.7 0.00 0.00 0.00 76 1010.3
20260505121841 17 25 0.0 17.7 0.00 0.00 0.00 75 1010.4